Regional Weather Roundup
Issued by NWS Upton, NY

Current Version | Previous Version | Text Only | Print | Product List | Glossary On
Versions: 1 2 3 4 5 6 7 8 9 10 11 12 13 14 15 16 17 18 19 20 21 22 23 24 25 26 27 28 29 30 31 32 33 34 35 36 37 38 39 40 41 42 43 44 45 46 47 48 49 50
000
ASUS41 KOKX 041808
RWROKX

REGIONAL WEATHER ROUNDUP
NATIONAL WEATHER SERVICE NEW YORK NY
200 PM EDT SAT JUL 04 2015

NOTE: "FAIR" INDICATES FEW OR NO CLOUDS BELOW 12,000 FEET WITH NO
SIGNIFICANT WEATHER AND/OR OBSTRUCTIONS TO VISIBILITY.

NYZ071-072-176-178-NJZ106-104-041900-
NEW YORK CITY METRO AREA


CITY           SKY/WX    TMP DP  RH WIND       PRES   REMARKS
CENTRAL PARK   LGT RAIN  70  61  73 MISG      29.99S
LAGUARDIA APRT LGT RAIN  71  63  75 NE5       29.96R
KENNEDY INTL   LGT RAIN  74  55  51 N12       29.97R
NEWARK/LIBERTY LGT RAIN  70  63  78 N10       29.96F
BRNX BOT. GARD   N/A     72  63  73 W6        29.97S
TETERBORO      LGT RAIN  72  58  61 VRB3      29.96S
$$

NYZ177-179-078>081-041900-
LONG ISLAND NEW YORK

CITY           SKY/WX    TMP DP  RH WIND       PRES   REMARKS
FARMINGDALE    CLOUDY    72  60  66 N12       29.96R
ISLIP          PTSUNNY   74  62  66 N12       29.94R
SHIRLEY        PTSUNNY   75  64  68 N13       29.95S
WESTHAMPTON    PTSUNNY   76  62  62 NE8       29.95F
MONTAUK POINT    N/A     70  63  78 NE9       29.97S
$$

NYZ052-065-067-041900-
HUDSON VALLEY

CITY           SKY/WX    TMP DP  RH WIND       PRES   REMARKS
WHITE PLAINS   CLOUDY    71  60  68 N8        29.97R
NEWBURGH       CLOUDY    64  63  94 CALM      30.00F
MONTGOMERY     LGT RAIN  67  63  87 E3        29.98F
POUGHKEEPSIE   LGT RAIN  67  61  81 N3        29.98S
ALBANY         LGT RAIN  65  62  90 S6        29.99S FOG
$$

NJZ001-105-106-008-010-013-015-019>022-104-041900-
NEW JERSEY

CITY           SKY/WX    TMP DP  RH WIND       PRES   REMARKS
NEWARK/LIBERTY LGT RAIN  70  63  78 N10       29.96F
TETERBORO      LGT RAIN  72  58  61 VRB3      29.96S
CALDWELL       CLOUDY    69  60  73 NE7       29.97F
MORRISTOWN     CLOUDY    73  66  78 E8        29.97F
SOMERVILLE     LGT RAIN  70  63  78 NE6       29.94F
SUSSEX         LGT RAIN  66  62  87 NE5       29.98F
ANDOVER          N/A     67  62  84 NE6       29.99F
TRENTON        CLOUDY    70  64  81 NE10      29.94F
MILLVILLE      LGT RAIN  79  59  50 NE7       29.91F
ATLANTIC CITY  MOSUNNY   78  63  59 E10       29.92R
WRIGHTSTOWN    LGT RAIN  72  61  67 N9        29.92S
TOMS RIVER     MOSUNNY   79  54  41 NE13      29.93F
BELMAR         CLOUDY    73  52  46 NE8       29.95F
$$

PAZ047>061-062-071-041900-
EASTERN PENNSYLVANIA

CITY           SKY/WX    TMP DP  RH WIND       PRES   REMARKS
PHILADELPHIA   LGT RAIN  74  65  73 NE9       29.93F
ALLENTOWN      CLOUDY    71  63  75 E9        29.97R
SCRANTON       CLOUDY    68  62  81 E5        29.97F
$$

CTZ002-004>006-009-010-012-RIZ004-006-007-MAZ004-011-015-041900-
SOUTHERN NEW ENGLAND
 IN CT

CITY           SKY/WX    TMP DP  RH WIND       PRES   REMARKS
BRADLEY INTL   LGT RAIN  69  61  75 N3        29.99R
HARTFORD       LGT RAIN  71  60  68 VRB7      29.98R
DANBURY        LGT RAIN  70  59  68 NE7       29.99S
WTRBRY/OXFORD  CLOUDY    70  55  60 NE7       30.00F
BRIDGEPORT     CLOUDY    72  63  73 E7        29.97R
MERIDEN        CLOUDY    72  59  63 N6        29.98R
NEW HAVEN      CLOUDY    73  59  61 NE6       29.97S
CHESTER        FAIR      72  57  60 NE3       29.99S
GROTON         CLOUDY    74  63  68 E9        29.96R
WILLIMANTIC    CLOUDY    73  52  47 CALM      29.98R

 IN RI

CITY           SKY/WX    TMP DP  RH WIND       PRES   REMARKS
PROVIDENCE     CLOUDY    73  52  47 CALM      29.98R
BLOCK ISLAND   CLOUDY    68  57  68 NE6       29.97R
WESTERLY       CLOUDY    72  54  53 E6        29.98R

 IN MA

CITY           SKY/WX    TMP DP  RH WIND       PRES   REMARKS
BOSTON         CLOUDY    68  60  75 E8        29.98S
WORCESTER      CLOUDY    70  54  56 W5        30.01S
WESTFIELD      LGT RAIN  66  62  87 CALM      30.00R
PROVINCETOWN   CLOUDY    73  16  11 S8        29.99S
NANTUCKET      CLOUDY    68  50  52 E10       29.95F
$$

ANZ330-335-338-340-345-350-353-355-041900-
COASTAL MARINE OBSERVATIONS


STATION/POSITION TIME  SKY/WX   TEMP    WIND        PRES    VSBY  WAVE
                                AIR SEA DIR/SP/G                  HT/PER
                 (UTC)          (F)     (DEG/KT/KT) (MB)    (MI)  (FT/S)
NY HARB ENTRANCE 1750            71 69  360/  8/  8 1014.0          3/ 7
4S FIRE IS       1703               70                N/A           3/ 7
20S FIRE ISLAND  1750            68 69   20/ 12/ 14 1013.3          3/ 7
GREAT SOUTH BAY  NOT AVBL
23SW MTP         1750            68 69   50/ 12/ 14 1013.3          3/ 8
HUDSON CANYON    NOT AVBL
KINGS POINT      1700            71 66   50/  2/  6 1013.8
CENTRAL LI SOUND NOT AVBL
EASTERN LI SOUND 1700            70 64   60/  6/  8   N/A
ROBBINS REEF     1700            71     360/ 11/ 12 1013.5
$$


>>>>>>>>>>>>>>>>>>>>>>>>>>>> KEY <<<<<<<<<<<<<<<<<<<<<<<<<<<
>                                                          <
>     SKY/WX - SKY CONDITION/PRESENT WEATHER               <
>     TMP    - TEMPERATURE IN FAHRENHEIT                   <
>     DP     - DEWPOINT IN FAHRENHEIT                      <
>     RH     - RELATIVE HUMIDITY IN PERCENT                <
>     WIND   - DIRECTION AND SPEED IN MPH                  <
>     PRES   - MEAN SEA LEVEL PRESSURE IN INCHES OF HG     <
>     WCI    - WIND CHILL INDEX                            <
>     VSB    - VISIBILITY IN MILES                         <
>     HX     - HEAT INDEX                                  <
>     TC     - TEMPERATURE IN CELSIUS                      <
>     VRB    - VARIABLE WIND DIRECTION                     <
>                                                          <
>>>>>>>>>>>>>>>>>>>>>>>>>>>> KEY <<<<<<<<<<<<<<<<<<<<<<<<<<<





USA.gov is the U.S. government's official web portal to all federal, state and local government web resources and services.